This is the latest recevied weather packets stored in our database for station/object SP9KB-13. If no packets are shown the sender has not sent any weather packets the latest 10 day(s).
| Time | Temp. | Humidity | Pressure | Rain* | Wind** | Luminosity | Snow |
|---|---|---|---|---|---|---|---|
| 1778082877 | 23.89° C | 42% | 990 hPa | 0 mm | - | - | - |
| 1778082576 | 23.89° C | 42% | 990 hPa | 0 mm | - | - | - |
| 1778082276 | 23.33° C | 42% | 989.7 hPa | 0 mm | - | - | - |
| 1778081975 | 23.33° C | 42% | 989.9 hPa | 0 mm | - | - | - |
| 1778081675 | 23.33° C | 42% | 989.9 hPa | 0 mm | - | - | - |
| 1778081374 | 23.33° C | 42% | 989.8 hPa | 0 mm | - | - | - |
| 1778081074 | 23.33° C | 42% | 989.9 hPa | 0 mm | - | - | - |
| 1778080773 | 23.33° C | 42% | 990.2 hPa | 0 mm | - | - | - |
| 1778080472 | 23.33° C | 42% | 990 hPa | 0 mm | - | - | - |
| 1778080172 | 23.33° C | 41% | 990.2 hPa | 0 mm | - | - | - |
| 1778079871 | 23.33° C | 42% | 990.2 hPa | 0 mm | - | - | - |
| 1778079571 | 23.89° C | 41% | 990.3 hPa | 0 mm | - | - | - |
| 1778079270 | 24.44° C | 41% | 990.1 hPa | 0 mm | - | - | - |
| 1778078970 | 23.33° C | 40% | 990.2 hPa | 0 mm | - | - | - |
| 1778078669 | 23.89° C | 39% | 990.2 hPa | 0 mm | - | - | - |
| 1778078368 | 23.89° C | 40% | 990.5 hPa | 0 mm | - | - | - |
| 1778078068 | 23.89° C | 43% | 990.4 hPa | 0 mm | - | - | - |
| 1778077767 | 23.89° C | 41% | 990.3 hPa | 0 mm | - | - | - |
| 1778077467 | 24.44° C | 39% | 990.5 hPa | 0 mm | - | - | - |
| 1778077166 | 24.44° C | 40% | 990.2 hPa | 0 mm | - | - | - |
| 1778076866 | 23.89° C | 41% | 990.5 hPa | 0 mm | - | - | - |
| 1778076565 | 23.33° C | 41% | 990.5 hPa | 0 mm | - | - | - |
| 1778076264 | 23.33° C | 41% | 990.6 hPa | 0 mm | - | - | - |
| 1778075964 | 23.89° C | 40% | 990.6 hPa | 0 mm | - | - | - |
| 1778075663 | 23.89° C | 40% | 990.7 hPa | 0 mm | - | - | - |
* Rain latest hour (hover to see other rain measurements)
** Current wind speed in m/s (hover to see current wind gust speed)